Flag for U.S.A. Weather past 2 weeks in Arlington, Texas, U.S.A.

Now
80 °F

Thundershowers. Partly sunny.


Feels Like: 83 °F
Forecast: 72 / 84 °F
Wind: 9 mph from Northeast

Location: Arlington Municipal Airport

Current Time: May 26, 2015 at 8:58:48 PM

Latest Report: May 26, 2015 at 8:00 PM


Visibility: 10 mi

Pressure: 29.94 "Hg

Humidity: 71%

Dew point: 70 °F

Location of ArlingtonLocation

Historic Weather in Arlington — Graph

°F

Arlington temperature yesterday

Maximum temperature yesterday: 78 °F (at 11:53 AM)
Minimum temperature yesterday: 64 °F (at 5:01 PM)
Average temperature yesterday: 70 °F

Past Weeks' High & Low Weather Summary

 TemperatureHumidityPressure
High89 °F (May 18, 3:53 PM)93% (May 18, 7:01 AM)30.27 "Hg (May 18, 7:01 AM)
Low58 °F (May 21, 6:53 AM)41% (May 12, 10:53 AM)29.70 "Hg (May 16, 6:53 PM)
Average72 °F76%29.99 "Hg
* Reported May 11 6:53 PM — May 26 6:53 PM, Arlington, Weather by CustomWeather, © 2015

Note: Actual official high and low records may vary slightly from our data, if they occured in-between our weather recording intervals... More about our weather records

Advertising

Arlington weather history for previous 24 hours

 ConditionsComfort  
Time TempWeatherWind HumidityBarometerVisibility
6:53 PM
Tue, May 26
80 °FSunny.7 mph71%29.92 "Hg10 mi
5:53 PM80 °FSunny.6 mph71%29.91 "Hg10 mi
4:53 PM82 °FSunny.9 mph60%29.92 "Hg10 mi
3:53 PM85 °FPartly sunny.10 mph61%29.93 "Hg10 mi
2:53 PM81 °FCloudy.5 mph69%29.95 "Hg10 mi
1:53 PM78 °FOvercast.5 mph74%29.97 "Hg10 mi
12:53 PM75 °FMostly cloudy.No wind79%29.98 "Hg10 mi
11:53 AM71 °FLow clouds.3 mph84%30.00 "Hg7 mi
10:53 AM69 °FFog.5 mph87%29.98 "Hg1 mi
9:53 AM68 °FFog.3 mph90%29.98 "Hg1 mi
8:53 AM67 °FLow clouds.8 mph90%29.97 "Hg10 mi
7:53 AM66 °FFog.7 mph90%29.95 "Hg5 mi
6:53 AM66 °FLow clouds.7 mph87%29.94 "Hg9 mi
5:53 AM66 °FLow clouds.7 mph90%29.92 "Hg7 mi
4:53 AM65 °FFog.12 mph91%29.93 "Hg5 mi
3:53 AM65 °FFog.9 mph91%29.91 "Hg6 mi
2:53 AM65 °FLow clouds.7 mph91%29.90 "Hg8 mi
2:01 AM64 °FFog.5 mph90%29.91 "Hg2 mi
12:53 AM63 °FClear.3 mph87%29.88 "Hg10 mi
11:53 PM
Mon, May 25
64 °FClear.6 mph87%29.88 "Hg10 mi
10:53 PM64 °FClear.6 mph90%29.87 "Hg10 mi
9:53 PM65 °FClear.5 mph87%29.84 "Hg10 mi
8:53 PM66 °FSunny.6 mph84%29.81 "Hg10 mi
Weather by CustomWeather, © 2015

See weather overviewHow to use our weather pages